This is the latest recevied weather packets stored in our database for station/object KQ4NAL. If no packets are shown the sender has not sent any weather packets the latest 1 day(s).
| Time | Temp. | Humidity | Pressure | Rain* | Wind** | Luminosity | Snow |
|---|---|---|---|---|---|---|---|
| 1778024946 | 15.56° C | 99% | 1008 hPa | 0 mm | 0.89 m/s, 332° | 12 W/m² | - |
| 1778024644 | 15.56° C | 99% | 1007.9 hPa | 0 mm | 0.45 m/s, 296° | 6 W/m² | - |
| 1778024340 | 15.56° C | 99% | 1007.8 hPa | 0 mm | 1.34 m/s, 230° | 8 W/m² | - |
| 1778024038 | 15.56° C | 99% | 1008 hPa | 1.27 mm | 1.79 m/s, 178° | 20 W/m² | - |
| 1778023735 | 15.56° C | 99% | 1008 hPa | 1.27 mm | 1.34 m/s, 167° | 20 W/m² | - |
| 1778023433 | 15.56° C | 99% | 1007.9 hPa | 0 mm | 1.34 m/s, 118° | 12 W/m² | - |
| 1778023129 | 15.56° C | 99% | 1008.1 hPa | 0 mm | 0.45 m/s, 36° | 16 W/m² | - |
| 1778022827 | 15.56° C | 99% | 1008.4 hPa | 1.78 mm | 1.34 m/s, 133° | 24 W/m² | - |
| 1778022525 | 15.56° C | 99% | 1008.6 hPa | 1.78 mm | 1.34 m/s, 137° | 17 W/m² | - |
| 1778022222 | 15.56° C | 98% | 1008.2 hPa | 0 mm | 0.89 m/s, 22° | 20 W/m² | - |
| 1778021919 | 15.56° C | 98% | 1008.4 hPa | 0 mm | 1.34 m/s, 185° | 40 W/m² | - |
| 1778021616 | 15.56° C | 98% | 1008.2 hPa | 0 mm | 1.34 m/s, 173° | 46 W/m² | - |
| 1778021311 | 15.56° C | 98% | 1008.6 hPa | 0 mm | 1.34 m/s, 108° | 43 W/m² | - |
| 1778021009 | 15.56° C | 98% | 1008.9 hPa | 0 mm | 1.79 m/s, 148° | 29 W/m² | - |
| 1778020706 | 16.11° C | 98% | 1008.6 hPa | 0 mm | 1.79 m/s, 201° | 38 W/m² | - |
| 1778020403 | 16.11° C | 98% | 1009 hPa | 0 mm | 1.34 m/s, 191° | 35 W/m² | - |
| 1778020098 | 16.11° C | 98% | 1009 hPa | 0 mm | 1.34 m/s, 138° | 53 W/m² | - |
| 1778019795 | 16.11° C | 98% | 1008.9 hPa | 0 mm | 1.79 m/s, 135° | 63 W/m² | - |
| 1778019492 | 16.11° C | 98% | 1009 hPa | 0 mm | 1.79 m/s, 151° | 88 W/m² | - |
| 1778019189 | 16.11° C | 98% | 1009.2 hPa | 0 mm | 1.34 m/s, 105° | 81 W/m² | - |
| 1778018886 | 16.11° C | 98% | 1009.2 hPa | 0 mm | 2.68 m/s, 185° | 65 W/m² | - |
| 1778018583 | 16.11° C | 98% | 1009.5 hPa | 0 mm | 1.34 m/s, 145° | 59 W/m² | - |
| 1778018281 | 16.11° C | 98% | 1009.4 hPa | 1.27 mm | 1.79 m/s, 173° | 53 W/m² | - |
| 1778017979 | 16.11° C | 98% | 1009.3 hPa | 1.27 mm | 2.68 m/s, 187° | 40 W/m² | - |
| 1778017676 | 16.11° C | 98% | 1009.4 hPa | 0 mm | 1.34 m/s, 333° | 78 W/m² | - |
* Rain latest hour (hover to see other rain measurements)
** Current wind speed in m/s (hover to see current wind gust speed)